Location: Newark
(44.4167°N, 26.1000°E)
Time: 14:55:38
(UTC+00:00)

X-37B - Visible Passes

Search period start: 29 September 2020 00:00
Search period end: 09 October 2020 00:00
Orbit: 386 x 387 km, 45.0° (Epoch: 18 September)

Date Brightness Start Highest point End Pass type
(mag) Time Alt. Az. Time Alt. Az. Time Alt. Az.
01 Oct 2.9 17:01:09 10° SSE 17:01:49 11° SSE 17:01:49 11° SSE visible
02 Oct 2.3 17:36:58 10° SW 17:38:37 23° SSW 17:38:37 23° SSW visible
03 Oct 2.3 16:39:04 10° SSW 16:41:24 19° SSE 16:42:58 14° ESE visible
03 Oct 3.4 18:14:31 10° WSW 18:15:15 16° WSW 18:15:15 16° WSW visible
04 Oct 0.9 17:16:05 10° SW 17:19:09 48° SSE 17:19:29 45° SE visible
05 Oct 1.7 16:17:50 10° SW 16:20:41 30° SSE 16:23:32 10° E visible
05 Oct 2.2 17:53:57 10° W 17:55:54 34° W 17:55:54 34° W visible
06 Oct 0.6 16:55:24 10° WSW 16:58:33 71° SSE 16:59:59 29° E visible
06 Oct 4.1 18:32:01 10° W 18:32:15 12° W 18:32:15 12° W visible
07 Oct 0.9 17:33:25 10° W 17:36:16 67° WNW 17:36:16 67° WNW visible
08 Oct 0.5 16:34:49 10° W 16:38:00 89° NNE 16:40:16 18° E visible
08 Oct 3.4 18:11:30 10° W 18:12:31 19° W 18:12:31 19° W visible
